Погода в Кубе

Погода в Кубе : погода сейчас, прогноз погоды и архив. Всё, что Вы хотите узнать о погоде в Кубе!

Поиск расширенной информации на нашем сайте:

Другие новости

Новости СМИ2

Главная страница сайта

Новости сайта

03.07.2017

Напоминаем, что на нашем специализированном сайте Метеоцентр.Азия вы можете получить высокодетализированные автоматические прогнозы погоды по пунктам России, СНГ и мира в авиационном формате (включающие направление и скорость ветра, видимость, явления погоды, количество и форму облачности, нижнюю и верхнюю границу облачности).


Погода в Кубе - сегодня

Время (UTC), дата Ветер
(°,м/с) 
Видим.   Явления Облачность Т
(°С)
Тd
(°С)
f(%) Тe
(°С)
Pmin
(гПа)
dP
(гПа)
Po
(мм)
O2
(г/м3)
Тmin Tmax R s Состояние
почвы
03 15.11.18 тихо ()   2000 м    10/10 300 м 
[Ns]
+4.2 +3 92 +4  1023  -0.2  717  284           
06 15.11.18 тихо ()   2000 м    10/10 300 м 
[Ns]
+4.5 +3 90 +5  1023.1  0.1  717  284  +3.2    0.5     
09 15.11.18 тихо ()   2000 м    10/10 300 м 
[Ns]
+5.5 +3.8 89 +6  1020.6  -1.9  716  282           
12 15.11.18 тихо ()   2000 м    10/10 300 м 
[Ns]
+6.5 +5.1 91 +7  1019.2  -1.2  715  281           
15 15.11.18 320 (СЗ) 2000 м    6/0 верхняя 
[Ci sp]
+6.3 +4.9 91 +7  1020  0.7  716  281           
21 15.11.18 270 (З) 2000 м    9/9 600 м 
[Sc]
+6.3 +3.7 83 +6  1020.8  716  281           
00 16.11.18 270 (З) 2000 м    9/9 600 м 
[Sc]
+7 +4 81 +7  1020.4  -0.1  716  281           
03 16.11.18 тихо ()   2000 м    9/9 600 м 
[Sc]
+6.8 +3.6 80 +7  1020.5  -0.7  716  281           
09 16.11.18 тихо ()   10 км    9/9 600 м 
[Sc]
+10.2 +5.1 71 +10  1021.1  -0.7  717  278           
12 16.11.18 тихо ()   2000 м    10/10 300 м 
[Ns]
+9.4 +6.4 82 +9  1021.4  0.2  717  278           
15 16.11.18 тихо ()   2000 м  слаб. морось  10/10 300 м 
[St]
+7.9 +7.4 97 +8  1023.1  1.3  718  280           
18 16.11.18 тихо ()   2000 м  слаб. морось  10/10 300 м 
[St]
+7.9 +7 94 +8  1023.9  0.7  719  280    +10.7  0.3     
21 16.11.18 тихо ()   2000 м  {морось, туман}  10/10 300 м 
[St]
+8 +7.4 96 +8  1022.9  -0.9  718  280           
00 17.11.18 тихо ()   2000 м  {морось, туман}  10/10 300 м 
[St]
+8 +7.4 96 +8  1022.8  -0.1  718  280           
03 17.11.18 тихо ()   2000 м    10/10 300 м 
[St]
+7.9 +7 94 +8  1023.3  0.4  718  280           
06 17.11.18 тихо ()   2000 м    10/10 300 м 
[St]
+8.4 +7.6 95 +8  1023.2  718  279  +7.8    0.3     
09 17.11.18 тихо ()   2000 м    10/10 300 м 
[Ns]
+8.7 +7.3 91 +9  1022.2  -0.8  718  279           
12 17.11.18 тихо ()   2000 м  слаб. морось  10/10 300 м 
[St]
+8.5 +7.4 93 +9  1023.3  0.9  718  279           
15 17.11.18 тихо ()   0200 м  слаб. морось{туман}  ?/?  
+7.9 +7.3 96 +8  1024.7  1.2  719  280           
18 17.11.18 360 (С) 2000 м  слаб. морось{туман}  10/10 300 м 
[St]
+5.4 +4.9 97 +5  1027.1  1.7  720  284    +9.1  0.3     
21 17.11.18 тихо ()   2000 м  {морось, туман}  10/10 300 м 
[St]
+5.3 +4.6 95 +5  1026.3  -0.9  720  284           
00 18.11.18 тихо ()   2000 м  {морось, туман}  10/10 300 м 
[St]
+4.8 +4.1 95 +5  1025.8  -0.5  719  284           
03 18.11.18 360 (С) 2000 м    10/10 300 м 
[Ns]
+4.6 +3.4 92 +3  1025.6  -0.2  719  284           
06 18.11.18 тихо ()   20000 м    ясно 
+7.4 +2.7 72 +7  1025  719  282  +2.9    0.3     
09 18.11.18 050 (СВ) 10 км    9/9 600 м 
[Sc]
+6.4 +3.6 82 +7  1024.2  -1  718  282           
Время (UTC), дата Ветер
(°,м/с) 
Видим.   Явления Облачность Т
(°С)
Тd
(°С)
f(%) Тe
(°С)
Pmin
(гПа)
dP
(гПа)
Po
(мм)
O2
(г/м3)
Тmin Tmax R s Состояние
почвы

Для получения пояснительной информации подведите курсор к названию столбца.

ПОГОДА в Кубе - архив

Всё, что Вы хотите узнать о погоде в Кубе - удобно и подробно!

Выберите нужную дату (начиная с 1 января 2015* года) и нажмите кнопку "Найти".
Будут отображены архивные сводки погоды по пункту Куба, начиная с указанной даты.


Отображать данные в формате CSV (для использования в таблицах Excel)


Внимание! Наш архив погоды предназначен исключительно для личного некоммерческого использования в познавательных целях. Если Вам необходимы официальные справки о состоянии погоды (для производственных, юридических, коммерческих и т.п. целей), обращайтесь в органы Росгидромета.

*Примечание: данная дата относится к архиву по метеостанциям СССР (Россия, СНГ, Балтия).
Архив по метеостанциям Зарубежной Европы и Азии (кроме Китая) хранится 10 дней, по другим регионам земного шара (Китай, Африка, Америка, Австралия, Океания) - 1 день.

Куба - район местоположения метеостанции


Название, широта, долгота, высота метеостанции:
Куба 41.4°ш. 48.5°д. 552 м над ур. моря [Азербайджан]

Дополнительная информация

В oтличие oт бoльшинства пoгoдных сайтoв мы публикуем пoдрoбную метеoинфoрмацию в детальнoм прoфессиoнальнoм фoрмате.

Характеристики температуры и влажнoсти вoздуха измеряются на высoте 2 м в тени вдали oт зданий и деревьев.
Скoрoсть ветра измеряется на высoте 10 м (на урoвне рoста челoвека скoрoсть ветра ниже в 1.5-2 раза). Если метеoстанция нахoдится в гoрoде или в лесу, тo скoрoсть ветра занижена на 2-4 м/с пo сравнению с oткрытым местoм. Скoрoсть ветра над акватoриями крупных рек и oзёр, а также на вершинах хoлмoв на 2-5 м/с выше, чем в oбычных услoвиях.
Атмoсфернoе давление в разных тoчках местнoсти мoжет значительнo oтличаться oт давления на метеoстанции, в зависимoсти oт услoвий рельефа (при пoдъёме на 10 м давление пoнижается примернo на 1 мм рт.ст.).